Dewpoint
14 12 11 12 13 14 12 10 10 10 10 10 11 11 11 10 10 8 5 6 6 4 5 10 5 5 1 1 4 7 8 5 2 11 10 9 9 10 9 8 5 11 -3
14 15 13 12 12 11 10 10 11 11 11 12 12 12 12 12 12 12 11 9 7 7 9 13 9 7 9 7 2 -3 -4 -3 -1 -0 2 10 11 10 10 10 9 6 -2
15 14 13 12 11 11 11 11 12 12 13 13 14 14 13 13 13 13 13 13 12 10 8 8 11 11 10 10 10 10 7 -1 -3 -3 -3 -2 12 11 10 10 8 8 1
15 15 14 13 12 13 13 14 14 14 13 13 13 13 13 13 13 13 13 13 13 13 13 12 10 10 10 10 10 10 9 9 8 -0 -3 9 9 10 4 2 2 7 10
15 15 14 14 14 14 14 13 13 13 12 12 12 11 11 11 12 12 12 13 13 13 13 13 13 13 12 11 11 11 10 9 9 10 10 10 8 9 4 1 7 9 10
14 15 14 14 14 14 13 13 12 11 7 4 4 3 1 4 7 8 7 7 8 10 11 11 12 12 13 13 13 12 12 12 12 11 14 12 11 3 1 3 5 7 11
14 14 14 14 14 13 13 12 10 2 -1 -4 -6 -7 -7 -7 -6 -7 -6 -5 -4 -2 0 2 5 6 10 12 13 13 13 13 12 12 13 13 13 12 1 0 4 6 6
13 14 14 14 14 13 11 5 -1 -8 -12 -14 -15 -15 -16 -15 -15 -14 -14 -14 -14 -14 -14 -14 -12 -8 -2 4 10 12 12 13 13 13 13 12 13 12 10 8 0 2 5
14 14 13 13 12 10 2 -8 -12 -14 -15 -15 -14 -14 -13 -12 -12 -12 -12 -11 -11 -11 -10 -10 -10 -10 -10 -11 -8 -2 4 10 11 12 14 13 13 13 11 9 9 8 2
13 13 13 12 7 -4 -10 -13 -15 -15 -14 -14 -13 -12 -12 -12 -12 -12 -12 -12 -13 -13 -12 -11 -10 -9 -9 -8 -8 -8 -8 -5 1 6 12 12 13 12 12 12 12 12 11
13 12 10 3 -8 -10 -13 -14 -15 -14 -14 -13 -13 -12 -12 -11 -12 -13 -15 -15 -15 -15 -13 -13 -12 -11 -9 -6 -7 -7 -7 -6 4 8 11 11 12 12 12 11 11 12 12
11 8 -0 -9 -10 -12 -13 -14 -14 -13 -13 -12 -12 -12 -12 -13 -14 -14 -15 -15 -16 -15 -16 -15 -15 -13 -6 -2 3 3 3 4 5 5 7 10 11 12 11 10 10 11 11
7 0 -8 -10 -12 -13 -13 -13 -13 -13 -12 -12 -12 -13 -13 -11 -12 -11 -12 -14 -14 -13 -12 -11 -8 -4 -6 -1 3 5 5 4 4 5 6 8 7 7 7 9 10 10 11
3 -6 -9 -11 -12 -13 -13 -13 -13 -12 -12 -12 -13 -12 -11 -10 -10 -11 -12 -11 -12 -14 -10 -8 -5 0 2 4 3 4 5 5 5 5 5 6 7 5 7 8 8 9 10
-3 -7 -9 -11 -12 -13 -12 -12 -12 -12 -12 -12 -11 -10 -10 -10 -11 -12 -11 -13 -15 -17 -17 -15 -5 -3 2 3 4 4 5 6 6 6 6 7 7 4 4 6 6 7 6
-5 -7 -10 -11 -12 -11 -11 -11 -12 -11 -11 -11 -10 -8 -9 -9 -10 -11 -12 -13 -15 -16 -18 -18 -5 -5 1 3 3 3 3 5 6 6 7 7 7 5 5 5 5 6 6
-5 -7 -10 -10 -10 -10 -10 -11 -11 -11 -11 -10 -8 -7 -7 -8 -9 -9 -10 -11 -13 -14 -16 -17 -12 -6 -1 1 1 2 3 4 5 7 7 8 7 7 4 3 3 3 3
-5 -7 -9 -9 -9 -9 -10 -9 -9 -10 -10 -9 -7 -7 -6 -7 -8 -8 -9 -9 -10 -12 -13 -13 -10 -9 -3 0 1 3 6 6 6 7 7 7 7 6 5 5 5 5 5
-4 -6 -8 -7 -7 -8 -7 -7 -7 -9 -9 -8 -6 -6 -6 -6 -7 -7 -7 -8 -9 -10 -11 -11 -9 -5 -1 -1 1 5 6 6 6 6 6 6 6 6 5 5 5 6 6
-3 -5 -6 -6 -6 -6 -5 -5 -7 -8 -9 -8 -6 -5 -5 -6 -6 -6 -6 -7 -7 -8 -9 -10 -11 -8 -1 -7 1 4 5 5 5 5 5 4 4 4 4 3 3 3 4
-2 -4 -5 -5 -5 -5 -5 -4 -6 -4 -8 -7 -6 -6 -5 -5 -5 -6 -5 -5 -6 -6 -7 -8 -8 -10 -4 -11 -1 -2 4 4 4 4 4 4 5 4 3 3 3 2 2
-2 -4 -4 -4 -4 -4 -4 -5 -6 -7 -7 -7 -6 -6 -5 -5 -5 -5 -5 -5 -5 -5 -6 -6 -6 -8 -8 -5 -7 1 0 3 5 3 3 4 3 4 3 1 0 0 1
-2 -3 -4 -4 -4 -3 -4 -5 -5 -6 -6 -6 -5 -6 -6 -5 -6 -5 -4 -4 -4 -4 -4 -5 -5 -6 -7 -6 -10 -5 -1 -0 -2 2 3 2 2 2 2 1 -2 -5 -4
-2 -3 -3 -3 -3 -3 -5 -6 -7 -6 -5 -4 -6 -6 -5 -5 -5 -5 -5 -4 -4 -4 -4 -4 -5 -5 -6 -8 -6 -1 -3 0 1 -0 1 1 1 0 -0 -2 -8 -13 -15
-4 -4 -4 -3 -3 -3 -6 -7 -7 -6 -5 -5 -4 -4 -4 -4 -4 -4 -4 -4 -3 -3 -4 -4 -4 -5 -6 -6 -7 -7 -6 -2 -1 1 0 -1 -1 -2 -1 -2 -10 -15 -17
-6 -6 -6 -4 -3 -4 -6 -6 -5 -5 -4 -4 -4 -2 -2 -1 -3 -3 -3 -3 -3 -2 -3 -3 -4 -5 -6 -6 -7 -7 -4 -4 -3 -2 -1 -2 -3 -3 -2 -2 -12 -16 -17
Wind_Speed
11 9 11 10 9 7 4 4 4 4 5 5 6 8 8 9 9 9 9 8 7 5 5 6 5 7 7 7 6 6 6 6 5 4 4 4 4 5 6 6 6 3 5
14 10 11 10 7 5 4 4 4 4 4 5 6 7 7 7 8 8 8 7 7 6 6 5 5 6 6 7 7 7 7 6 6 6 7 6 9 8 7 6 5 6 4
14 10 10 9 7 6 4 4 4 4 5 6 6 7 7 7 7 8 7 7 7 7 7 6 7 7 7 8 8 8 7 7 7 7 6 6 7 14 11 10 8 6 4
11 13 9 9 7 6 5 4 3 2 3 4 5 6 6 7 7 8 8 8 8 8 8 9 9 10 10 10 10 9 9 9 9 8 7 6 7 15 12 10 9 7 5
15 14 12 10 9 7 4 2 1 2 4 6 7 7 9 9 10 10 10 11 11 11 11 10 10 12 12 13 12 12 12 11 11 10 7 9 9 9 12 9 7 8 8
15 13 13 10 7 5 2 0 2 4 5 6 6 7 8 9 10 11 12 12 13 13 14 14 14 14 13 13 14 15 14 13 14 11 10 11 14 10 11 10 10 10 11
14 13 12 9 6 3 2 2 3 5 5 6 7 8 9 10 10 12 13 14 15 15 16 17 17 17 17 17 17 15 15 15 15 13 10 12 13 16 12 12 12 12 10
12 10 10 7 4 3 2 3 4 5 7 8 8 9 10 11 12 12 13 14 16 16 17 18 19 19 19 19 19 19 19 18 17 14 14 14 13 20 16 14 13 14 14
13 10 9 7 5 3 3 3 5 6 7 8 9 9 10 11 12 13 14 14 15 16 17 18 19 20 20 21 21 21 21 21 20 17 15 16 16 19 17 16 16 15 16
13 11 9 7 4 2 2 3 5 6 7 8 9 9 10 11 11 11 13 14 15 16 16 16 16 17 18 19 20 21 21 20 20 18 16 19 18 20 19 18 18 17 17
13 11 9 6 4 1 2 4 5 6 7 7 8 8 9 10 12 14 14 15 16 16 16 16 15 15 15 14 15 16 17 15 10 12 13 18 19 20 20 19 20 19 20
13 11 8 5 3 1 1 3 5 5 6 7 8 9 10 11 13 13 15 15 15 15 16 16 16 16 14 13 10 13 9 9 10 10 11 18 20 23 23 21 22 21 19
13 10 7 5 3 1 1 2 4 5 6 7 8 9 10 11 12 13 14 14 15 17 16 17 15 14 15 14 12 11 11 10 8 8 12 19 21 20 19 19 19 20 20
12 9 7 5 3 1 1 2 4 5 6 7 8 9 9 10 10 11 13 15 16 17 16 16 15 15 14 12 12 12 11 10 8 7 11 17 16 14 15 16 16 16 16
12 9 6 5 3 1 1 3 4 5 6 7 8 8 8 9 11 12 13 15 17 18 17 17 15 15 13 13 12 11 11 9 9 6 6 14 16 12 13 13 14 14 15
12 9 7 5 3 2 2 3 4 5 6 6 7 8 9 11 13 14 15 16 17 17 17 16 15 15 13 12 12 11 10 8 8 7 4 11 15 11 11 12 11 11 9
12 9 7 5 3 3 3 4 5 6 6 6 7 8 10 12 14 15 15 16 16 17 16 15 14 14 13 12 11 10 10 8 6 6 4 3 11 11 11 14 17 18 19
12 10 8 6 4 3 3 4 5 5 5 6 7 8 10 12 13 14 15 15 16 16 16 15 15 15 13 12 11 9 8 6 4 4 2 4 6 10 7 8 8 9 9
13 11 9 6 5 4 3 5 6 6 5 6 6 8 10 11 12 13 13 14 15 16 15 16 14 14 13 14 10 7 6 5 5 3 2 4 7 8 10 10 10 10 10
14 11 10 8 6 4 4 6 7 6 5 6 6 7 9 11 12 12 12 14 15 15 15 16 16 14 12 14 9 6 3 1 3 4 7 9 9 9 10 11 11 12 12
16 13 11 9 7 6 5 6 6 4 6 7 8 9 10 11 11 11 12 13 13 14 15 16 16 16 12 15 8 6 8 11 7 6 8 7 7 10 13 14 14 14 16
16 15 13 11 9 7 6 6 5 6 7 9 11 11 11 12 12 12 12 12 12 13 13 14 15 15 12 13 12 6 5 5 4 7 6 5 7 8 9 13 12 13 13
18 17 15 13 11 8 6 5 6 7 8 9 11 12 12 13 13 13 13 13 14 13 13 14 14 14 14 11 11 5 5 4 14 2 7 8 7 8 9 12 12 13 12
18 18 16 16 12 8 6 6 5 6 7 9 11 12 14 15 15 15 14 15 15 15 15 14 14 13 12 11 8 5 5 7 4 8 5 11 10 13 15 12 13 15 14
18 19 18 17 14 9 8 6 6 7 10 11 13 15 16 17 17 17 17 17 17 17 16 15 15 14 13 11 9 9 8 7 7 9 14 9 13 10 17 19 16 14 14
17 19 19 18 15 12 9 6 7 9 12 13 15 16 17 17 20 20 19 18 18 19 18 17 17 16 14 13 12 10 8 6 7 8 11 13 14 10 9 17 15 15 15
Wind_Direction
144 168 152 145 140 135 130 103 93 79 67 56 47 40 35 33 33 34 35 36 36 33 34 9 357 358 359 359 353 345 342 337 325 307 310 325 338 347 354 5 27 338 352
149 160 146 152 151 153 129 119 99 75 56 44 36 29 25 22 21 20 19 15 9 4 10 18 339 347 345 347 350 346 336 328 321 310 299 297 321 308 313 322 334 336 339
148 163 151 147 146 137 125 109 84 58 39 26 19 12 9 5 1 358 355 354 351 344 334 321 322 321 320 321 322 324 328 327 321 317 310 307 300 296 292 298 303 303 312
140 142 153 141 143 135 129 117 109 69 19 358 349 343 338 336 335 332 331 329 327 325 321 315 308 307 309 308 309 311 313 313 318 316 316 312 272 283 291 289 293 287 292
156 157 159 148 145 138 134 124 74 355 338 329 322 319 315 314 310 307 306 304 303 301 298 298 299 300 300 300 301 302 304 306 307 308 322 291 284 280 285 280 284 270 273
160 167 154 154 154 147 157 171 324 330 324 320 317 313 310 305 301 299 298 298 297 296 295 293 289 287 288 290 293 295 298 297 298 307 294 293 292 264 284 277 275 273 269
135 152 159 159 161 169 203 282 311 314 316 314 312 308 305 303 302 302 301 302 300 299 298 296 293 290 285 283 283 285 288 287 289 288 275 283 289 281 287 278 273 274 274
151 158 163 166 177 195 244 291 307 314 315 315 316 314 314 313 313 311 310 309 307 304 300 295 291 289 286 284 282 280 279 281 285 287 282 270 268 284 285 283 279 272 269
167 165 166 169 184 215 259 295 309 316 320 323 327 327 325 325 324 323 320 316 314 310 308 305 301 296 292 286 283 281 278 278 280 280 274 272 269 276 283 285 283 279 275
170 177 172 172 186 237 287 315 323 330 336 337 337 336 336 330 331 331 329 329 326 323 320 317 313 308 301 294 286 282 279 278 282 292 278 277 269 273 275 281 286 284 281
172 179 178 177 182 234 322 335 337 345 339 337 340 343 342 339 341 336 338 338 337 335 334 332 329 325 320 315 306 298 290 291 291 267 284 277 272 270 275 278 283 284 282
177 181 181 177 181 202 347 348 347 344 340 341 344 345 346 344 344 343 345 342 338 337 331 333 330 330 335 327 325 324 324 290 280 276 265 268 265 270 278 279 279 285 285
179 182 180 176 178 163 9 343 337 335 336 342 345 347 351 352 353 350 345 342 343 343 342 339 338 333 331 330 329 327 320 312 299 283 281 276 272 268 274 277 279 284 290
179 184 181 179 176 173 317 332 332 335 339 341 348 354 359 355 351 348 347 349 348 346 344 344 341 337 334 330 326 328 326 325 312 287 285 285 287 276 275 279 282 283 284
180 187 186 186 187 212 313 331 332 333 339 342 354 356 356 355 355 355 353 352 350 350 348 347 343 338 336 333 333 332 330 328 323 316 291 295 295 283 280 279 285 289 289
184 192 193 196 204 248 310 320 322 330 334 343 350 351 356 359 360 359 357 355 354 353 352 350 346 341 339 337 332 335 333 332 327 328 313 304 309 284 269 272 272 274 281
190 196 200 206 225 261 298 311 320 325 331 340 339 348 359 1 358 356 355 356 356 356 357 354 351 351 345 341 338 343 336 328 335 341 353 327 296 289 284 289 291 292 290
198 202 208 215 241 268 296 309 316 323 324 330 338 348 356 354 353 353 355 357 358 360 1 1 359 355 354 346 346 351 352 355 13 30 285 241 300 324 328 319 317 310 302
205 211 214 224 242 260 287 310 314 316 316 323 331 344 347 343 346 349 352 355 359 1 3 2 359 355 356 345 354 355 11 26 36 50 296 330 349 346 339 336 331 328 323
209 216 221 227 233 247 286 309 310 308 307 312 322 330 329 333 339 343 347 351 356 358 360 360 359 359 358 349 352 334 344 353 280 324 331 322 314 311 307 312 312 312 294
215 222 224 230 235 248 286 310 306 308 309 308 313 315 318 325 327 333 337 343 348 354 354 356 359 360 359 359 3 322 285 304 338 326 331 336 347 329 306 302 301 301 300
223 227 227 229 237 246 276 290 283 291 297 298 303 307 311 315 320 323 326 330 337 342 344 348 351 356 359 354 360 6 337 278 322 314 309 331 330 332 330 317 309 305 302
226 229 228 229 234 242 278 276 287 296 297 304 310 311 312 314 315 313 315 318 321 328 333 336 342 347 349 351 355 12 343 328 322 275 301 320 325 321 322 316 322 318 313
229 231 227 227 230 241 258 266 288 298 295 296 309 311 313 315 314 313 310 308 310 315 319 323 327 333 338 337 350 321 321 292 314 325 310 321 330 323 315 315 315 317 317
228 230 225 227 227 235 239 254 286 302 306 312 313 314 316 315 316 314 310 304 304 305 307 311 313 317 319 319 317 315 316 304 291 281 301 302 303 311 308 309 317 323 329
228 227 224 223 221 225 230 254 291 307 308 309 312 311 312 308 308 309 307 304 300 299 301 303 304 304 305 305 305 305 301 295 279 284 293 294 295 301 287 291 310 317 322
Height
1541 1539 1540 1542 1543 1544 1545 1545 1546 1546 1546 1547 1547 1547 1546 1545 1545 1544 1543 1543 1542 1542 1541 1541 1540 1540 1539 1538 1538 1537 1537 1536 1536 1535 1535 1535 1535 1534 1534 1534 1534 1535 1533
1541 1540 1541 1542 1544 1545 1546 1546 1547 1547 1547 1547 1547 1547 1547 1547 1546 1545 1545 1544 1543 1542 1542 1541 1541 1540 1539 1539 1538 1537 1537 1536 1536 1535 1535 1535 1535 1534 1534 1534 1533 1533 1533
1540 1541 1541 1543 1545 1546 1547 1547 1547 1548 1548 1548 1548 1547 1547 1547 1546 1546 1545 1545 1544 1543 1543 1542 1541 1540 1539 1539 1538 1537 1536 1536 1535 1535 1535 1535 1537 1534 1534 1533 1533 1532 1532
1541 1542 1543 1544 1545 1546 1548 1548 1548 1548 1548 1548 1548 1548 1547 1547 1547 1546 1545 1545 1544 1543 1542 1542 1541 1540 1539 1538 1537 1537 1536 1536 1535 1535 1534 1536 1536 1533 1532 1532 1532 1532 1532
1539 1540 1543 1544 1546 1547 1548 1549 1549 1549 1549 1548 1548 1547 1547 1547 1546 1545 1544 1544 1543 1542 1541 1541 1540 1539 1538 1537 1536 1536 1535 1535 1535 1534 1534 1535 1534 1534 1531 1531 1531 1531 1531
1539 1541 1543 1545 1547 1547 1549 1549 1549 1549 1549 1548 1548 1547 1546 1545 1544 1543 1543 1542 1541 1540 1540 1539 1538 1538 1537 1536 1535 1534 1534 1534 1533 1533 1535 1534 1532 1531 1530 1530 1530 1530 1529
1539 1541 1543 1545 1547 1548 1548 1549 1549 1549 1548 1548 1547 1546 1545 1545 1544 1543 1542 1541 1540 1539 1538 1537 1536 1535 1535 1534 1533 1533 1532 1531 1531 1531 1533 1533 1532 1529 1529 1528 1528 1528 1528
1539 1542 1543 1545 1547 1548 1548 1549 1548 1548 1548 1547 1546 1546 1545 1544 1543 1542 1541 1539 1538 1537 1535 1534 1533 1532 1532 1531 1530 1530 1529 1529 1528 1529 1529 1530 1529 1528 1527 1527 1526 1526 1526
1540 1543 1544 1545 1547 1548 1548 1548 1548 1547 1547 1546 1545 1545 1544 1543 1542 1541 1539 1538 1536 1534 1533 1531 1530 1529 1528 1527 1527 1526 1526 1526 1525 1526 1527 1527 1526 1526 1525 1525 1524 1524 1523
1540 1543 1544 1545 1546 1547 1548 1548 1547 1547 1546 1545 1545 1544 1542 1541 1540 1539 1537 1536 1534 1532 1531 1529 1527 1526 1524 1523 1522 1521 1521 1521 1522 1522 1524 1523 1523 1522 1522 1522 1522 1522 1520
1541 1543 1544 1545 1546 1547 1547 1547 1547 1546 1545 1545 1544 1543 1541 1541 1539 1538 1536 1534 1532 1531 1529 1527 1525 1523 1522 1520 1519 1517 1517 1518 1520 1522 1522 1520 1520 1519 1518 1518 1518 1518 1518
1541 1543 1544 1545 1546 1546 1546 1546 1546 1546 1545 1544 1543 1542 1541 1540 1539 1537 1535 1533 1531 1529 1527 1525 1524 1522 1520 1519 1518 1516 1516 1516 1517 1518 1519 1516 1516 1515 1515 1515 1514 1514 1514
1541 1543 1544 1545 1546 1546 1546 1546 1546 1545 1544 1543 1543 1542 1541 1540 1538 1536 1534 1532 1530 1528 1526 1524 1522 1521 1519 1517 1516 1515 1514 1513 1513 1515 1515 1512 1511 1512 1512 1511 1511 1510 1510
1540 1543 1544 1545 1545 1545 1545 1545 1545 1545 1544 1543 1542 1541 1540 1539 1538 1536 1534 1531 1529 1527 1525 1523 1521 1520 1518 1517 1515 1514 1512 1512 1512 1511 1511 1509 1508 1508 1508 1508 1507 1507 1507
1540 1543 1544 1544 1545 1545 1545 1545 1545 1544 1543 1542 1541 1541 1540 1538 1537 1535 1533 1531 1529 1527 1525 1522 1521 1519 1518 1516 1514 1513 1512 1511 1510 1509 1509 1507 1505 1505 1505 1505 1504 1504 1504
1540 1542 1542 1543 1544 1544 1544 1545 1544 1544 1543 1542 1541 1540 1539 1538 1536 1535 1532 1530 1528 1526 1524 1522 1520 1518 1517 1516 1513 1512 1511 1511 1510 1509 1508 1505 1503 1502 1501 1501 1501 1501 1501
1538 1540 1541 1543 1543 1543 1544 1544 1544 1543 1542 1541 1540 1539 1538 1537 1536 1534 1532 1530 1528 1525 1523 1521 1519 1517 1516 1515 1513 1512 1510 1510 1509 1508 1507 1507 1501 1500 1500 1500 1499 1499 1499
1537 1538 1540 1541 1542 1543 1543 1543 1543 1542 1542 1541 1540 1539 1538 1537 1536 1534 1532 1529 1527 1524 1522 1520 1518 1516 1515 1514 1512 1511 1510 1510 1509 1508 1505 1502 1501 1498 1498 1498 1497 1496 1495
1535 1537 1539 1540 1541 1542 1542 1542 1542 1541 1541 1540 1540 1539 1538 1537 1535 1533 1531 1529 1526 1524 1522 1519 1517 1516 1514 1513 1512 1511 1510 1509 1509 1507 1503 1502 1501 1500 1498 1497 1496 1496 1495
1534 1536 1537 1538 1539 1540 1541 1541 1540 1540 1539 1539 1539 1538 1537 1536 1534 1532 1530 1528 1526 1524 1522 1519 1517 1515 1514 1511 1511 1511 1510 1509 1506 1506 1504 1503 1501 1500 1498 1496 1495 1493 1491
1532 1534 1536 1537 1538 1539 1540 1540 1539 1539 1538 1538 1537 1536 1536 1534 1533 1531 1530 1528 1526 1523 1522 1519 1517 1515 1513 1511 1510 1509 1508 1506 1505 1504 1504 1503 1502 1499 1497 1495 1494 1493 1490
1530 1533 1534 1535 1537 1538 1539 1537 1538 1538 1537 1536 1536 1535 1534 1533 1531 1530 1528 1527 1525 1523 1522 1519 1517 1515 1513 1511 1509 1508 1508 1507 1506 1504 1503 1503 1502 1500 1497 1493 1491 1489 1488
1528 1530 1532 1533 1535 1536 1536 1536 1536 1536 1536 1535 1534 1533 1532 1531 1529 1528 1526 1525 1524 1523 1521 1519 1517 1515 1513 1511 1509 1510 1509 1508 1505 1503 1502 1501 1500 1498 1496 1492 1490 1488 1486
1525 1527 1529 1531 1533 1533 1534 1534 1534 1535 1535 1534 1533 1532 1530 1529 1527 1526 1524 1523 1522 1521 1519 1517 1516 1514 1512 1511 1510 1509 1508 1508 1507 1504 1502 1501 1498 1497 1493 1491 1488 1486 1484
1522 1523 1526 1528 1530 1531 1532 1532 1533 1533 1533 1532 1532 1530 1528 1527 1525 1523 1522 1520 1519 1519 1517 1515 1514 1513 1511 1510 1508 1506 1505 1506 1505 1504 1500 1500 1498 1497 1492 1489 1487 1485 1483
1518 1520 1522 1524 1527 1528 1530 1531 1531 1532 1531 1530 1529 1527 1525 1524 1522 1520 1519 1518 1517 1516 1514 1513 1511 1510 1509 1508 1506 1504 1503 1503 1502 1501 1499 1497 1495 1493 1492 1487 1485 1483 1481